TimeCST,TemperatureF,Dew PointF,Humidity,Sea Level PressureIn,VisibilityMPH,Wind Direction,Wind SpeedMPH,Gust SpeedMPH,PrecipitationIn,Events,Conditions,WindDirDegrees,DateUTC
12:13 AM,30.2,26.6,86,30.26,10.0,North,9.2,-,N/A,,Clear,350,2011-11-29 06:13:00
12:32 AM,28.4,26.6,93,30.27,10.0,North,9.2,-,N/A,,Clear,350,2011-11-29 06:32:00
12:53 AM,28.4,26.6,93,30.27,10.0,NNW,9.2,-,N/A,,Clear,340,2011-11-29 06:53:00
1:13 AM,28.4,24.8,86,30.28,10.0,NNW,9.2,-,N/A,,Clear,340,2011-11-29 07:13:00
1:33 AM,28.4,24.8,86,30.29,10.0,NNW,9.2,-,N/A,,Clear,340,2011-11-29 07:33:00
1:53 AM,26.6,24.8,93,30.30,10.0,NNW,8.1,-,N/A,,Clear,330,2011-11-29 07:53:00
2:13 AM,26.6,23.0,86,30.31,10.0,NNW,5.8,-,N/A,,Clear,340,2011-11-29 08:13:00
2:32 AM,26.6,23.0,86,30.31,10.0,NNW,6.9,-,N/A,,Clear,330,2011-11-29 08:32:00
2:53 AM,24.8,21.2,86,30.31,10.0,NNW,6.9,-,N/A,,Clear,330,2011-11-29 08:53:00
3:13 AM,24.8,21.2,86,30.31,10.0,NNW,5.8,-,N/A,,Clear,340,2011-11-29 09:13:00
3:33 AM,24.8,21.2,86,30.32,10.0,NNW,4.6,-,N/A,,Clear,340,2011-11-29 09:33:00
3:53 AM,24.8,21.2,86,30.31,10.0,NNW,5.8,-,N/A,,Clear,340,2011-11-29 09:53:00
4:13 AM,21.2,19.4,93,30.31,10.0,North,5.8,-,N/A,,Clear,350,2011-11-29 10:13:00
4:33 AM,24.8,21.2,86,30.30,10.0,North,6.9,-,N/A,,Clear,350,2011-11-29 10:33:00
4:53 AM,24.8,19.4,80,30.30,10.0,North,5.8,-,N/A,,Clear,360,2011-11-29 10:53:00
5:13 AM,24.8,19.4,80,30.30,10.0,North,5.8,-,N/A,,Clear,10,2011-11-29 11:13:00
5:33 AM,24.8,19.4,80,30.30,10.0,NNE,4.6,-,N/A,,Clear,20,2011-11-29 11:33:00
5:53 AM,21.2,17.6,86,30.31,10.0,North,4.6,-,N/A,,Clear,360,2011-11-29 11:53:00
6:13 AM,21.2,17.6,86,30.31,10.0,NNW,3.5,-,N/A,,Clear,340,2011-11-29 12:13:00
6:33 AM,21.2,17.6,86,30.32,10.0,NNW,3.5,-,N/A,,Clear,330,2011-11-29 12:33:00
6:53 AM,21.2,17.6,86,30.32,10.0,NW,4.6,-,N/A,,Clear,320,2011-11-29 12:53:00
7:13 AM,21.2,17.6,86,30.33,10.0,NW,5.8,-,N/A,,Clear,320,2011-11-29 13:13:00
7:33 AM,21.2,17.6,86,30.33,10.0,NW,4.6,-,N/A,,Clear,310,2011-11-29 13:33:00
7:53 AM,23.0,17.6,80,30.34,10.0,NW,4.6,-,N/A,,Clear,310,2011-11-29 13:53:00
8:13 AM,21.2,17.6,86,30.34,10.0,NW,3.5,-,N/A,,Clear,310,2011-11-29 14:13:00
8:33 AM,23.0,17.6,80,30.35,10.0,WNW,4.6,-,N/A,,Clear,290,2011-11-29 14:33:00
8:53 AM,24.8,19.4,80,30.36,10.0,WNW,3.5,-,N/A,,Clear,300,2011-11-29 14:53:00
9:13 AM,24.8,19.4,80,30.37,10.0,WNW,4.6,-,N/A,,Clear,290,2011-11-29 15:13:00
9:33 AM,26.6,19.4,74,30.38,10.0,NW,6.9,-,N/A,,Clear,320,2011-11-29 15:33:00
9:53 AM,28.4,19.4,69,30.38,10.0,NW,4.6,-,N/A,,Clear,310,2011-11-29 15:53:00
10:33 AM,28.4,19.4,69,30.37,10.0,North,3.5,-,N/A,,Clear,350,2011-11-29 16:33:00
10:52 AM,30.2,17.6,60,30.36,10.0,North,3.5,-,N/A,,Clear,10,2011-11-29 16:52:00
11:13 AM,30.2,17.6,60,30.34,10.0,Calm,Calm,-,N/A,,Clear,0,2011-11-29 17:13:00
11:33 AM,32.0,17.6,55,30.33,10.0,Calm,Calm,-,N/A,,Clear,0,2011-11-29 17:33:00
11:52 AM,32.0,15.8,51,30.32,10.0,NW,4.6,-,N/A,,Clear,320,2011-11-29 17:52:00
12:32 PM,33.8,15.8,48,30.30,10.0,West,3.5,-,N/A,,Clear,270,2011-11-29 18:32:00
12:53 PM,35.6,12.2,38,30.29,10.0,West,4.6,-,N/A,,Clear,280,2011-11-29 18:53:00
1:53 PM,37.4,12.2,36,30.26,10.0,West,5.8,-,N/A,,Clear,270,2011-11-29 19:53:00
2:13 PM,37.4,12.2,36,30.26,10.0,West,4.6,-,N/A,,Clear,280,2011-11-29 20:13:00
2:33 PM,37.4,10.4,33,30.25,10.0,WNW,4.6,-,N/A,,Clear,300,2011-11-29 20:33:00
2:53 PM,37.4,10.4,33,30.25,10.0,NW,6.9,-,N/A,,Clear,310,2011-11-29 20:53:00
3:13 PM,37.4,8.6,30,30.24,10.0,NNW,3.5,-,N/A,,Clear,330,2011-11-29 21:13:00
3:33 PM,37.4,8.6,30,30.24,10.0,WNW,6.9,-,N/A,,Clear,300,2011-11-29 21:33:00
3:53 PM,35.6,10.4,35,30.24,10.0,WNW,4.6,-,N/A,,Clear,290,2011-11-29 21:53:00
4:13 PM,35.6,12.2,38,30.23,10.0,Calm,Calm,-,N/A,,Clear,0,2011-11-29 22:13:00
4:33 PM,33.8,12.2,41,30.22,10.0,WNW,3.5,-,N/A,,Clear,290,2011-11-29 22:33:00
4:53 PM,32.0,15.8,51,30.22,10.0,Calm,Calm,-,N/A,,Clear,0,2011-11-29 22:53:00
5:13 PM,30.2,15.8,55,30.21,10.0,Calm,Calm,-,N/A,,Clear,0,2011-11-29 23:13:00
5:33 PM,28.4,14.0,55,30.20,10.0,Calm,Calm,-,N/A,,Clear,0,2011-11-29 23:33:00
5:53 PM,26.6,14.0,59,30.19,10.0,Calm,Calm,-,N/A,,Clear,0,2011-11-29 23:53:00
6:13 PM,28.4,14.0,55,30.20,10.0,Calm,Calm,-,N/A,,Clear,0,2011-11-30 00:13:00
6:33 PM,26.6,15.8,64,30.19,10.0,Calm,Calm,-,N/A,,Clear,0,2011-11-30 00:33:00
6:53 PM,23.0,14.0,68,30.19,10.0,Calm,Calm,-,N/A,,Clear,0,2011-11-30 00:53:00
7:33 PM,26.6,15.8,64,30.16,10.0,Calm,Calm,-,N/A,,Clear,0,2011-11-30 01:33:00
7:53 PM,24.8,17.6,74,30.15,10.0,Calm,Calm,-,N/A,,Clear,0,2011-11-30 01:53:00
8:13 PM,24.8,17.6,74,30.15,10.0,Calm,Calm,-,N/A,,Clear,0,2011-11-30 02:13:00
8:33 PM,24.8,17.6,74,30.14,10.0,Calm,Calm,-,N/A,,Clear,0,2011-11-30 02:33:00
8:53 PM,23.0,17.6,80,30.13,10.0,Calm,Calm,-,N/A,,Clear,0,2011-11-30 02:53:00
9:13 PM,23.0,19.4,86,30.13,10.0,Calm,Calm,-,N/A,,Clear,0,2011-11-30 03:13:00
10:14 PM,24.8,15.8,69,30.11,10.0,Calm,Calm,-,N/A,,Clear,0,2011-11-30 04:14:00
10:33 PM,21.2,15.8,80,30.10,10.0,Calm,Calm,-,N/A,,Clear,0,2011-11-30 04:33:00
10:53 PM,24.8,15.8,69,30.08,10.0,Calm,Calm,-,N/A,,Clear,0,2011-11-30 04:53:00
11:13 PM,24.8,15.8,69,30.08,10.0,Calm,Calm,-,N/A,,Clear,0,2011-11-30 05:13:00
11:33 PM,24.8,15.8,69,30.07,10.0,Calm,Calm,-,N/A,,Clear,0,2011-11-30 05:33:00
11:53 PM,24.8,12.2,59,30.06,10.0,Calm,Calm,-,N/A,,Clear,0,2011-11-30 05:53:00